[[{"header":{"parameterUnit":"m.s-1","parameterCategory":1,"la1":30.2991,"la2":30.254,"lo1":-89.0895,"lo2":-89.0444,"dy":0.0017,"dx":0.0017,"nx":28,"ny":28,"refTime":"2023-04-30T15:00:00:Z","depth":0,"parameterNumber":2,"parameterNumberName":"U-component_of_WINDS"},"data":[0,0,0,0,0,0,0,0,0,0,0,0,0,0,0,0,0,0,0,0,0,0,0,0,0,0,0,0,0,0,0,0,0,0,0,0,0,0,0,0,0,0,0,0,0,0,0,0,0,0,0,0,0,0,0,0,0,0,-2.0399,-2.0399,0,-2.0384,-2.0384,-2.0384,-2.0274,-2.0271,-2.0268,-2.0266,-2.0255,-2.0257,-2.0259,0,0,0,0,0,0,0,0,0,0,0,0,0,-2.0335,-2.0336,-2.0399,-2.0399,-2.0399,-2.0384,-2.0384,-2.0384,-2.0274,-2.0271,-2.0268,-2.0265,-2.0254,-2.0257,-2.0259,0,0,0,0,0,0,0,0,0,0,0,0,0,-2.0346,-2.0337,-2.0399,-2.0342,-2.0337,-2.0384,-2.0384,-2.0384,-2.0275,-2.0271,-2.0267,-2.0263,-2.0253,-2.0257,-2.026,-2.0362,0,0,-2.027,-2.0272,0,0,0,0,0,0,0,0,-2.0345,-2.0348,-2.0351,-2.0346,-2.034,-2.0327,-2.0357,-2.0377,-2.0276,-2.0299,-2.0266,-2.0261,-2.0282,-2.0283,-2.0289,-2.0362,-2.0361,-2.027,-2.0272,-2.0274,-2.0275,0,0,0,0,0,0,0,-2.0345,-2.0348,-2.0393,-2.0351,-2.0345,-2.0318,-2.0315,-2.036,-2.0314,-2.0296,-2.0288,-2.0288,-2.0279,-2.0286,-2.0288,-2.0361,-2.027,-2.0273,-2.0275,-2.0277,-2.0515,-2.0519,0,0,0,0,0,0,-2.0351,-2.0348,-2.0394,-2.0393,-2.0333,-2.0323,-2.0319,-2.0335,-2.0313,-2.0305,-2.0291,-2.0283,-2.0283,-2.0284,-2.0288,-2.0405,-2.0274,-2.0277,-2.0279,-2.0511,-2.0516,-2.0521,0,0,0,0,0,0,-2.035,-2.0356,-2.0394,-2.0368,-2.0371,-2.0328,-2.0347,-2.0337,-2.0344,-2.0309,-2.03,-2.0308,-2.028,-2.0283,-2.0344,-2.0403,-2.0278,-2.0282,-2.0506,-2.0512,-2.0518,-2.0642,0,0,0,0,0,0,-2.0349,-2.0357,-2.0395,-2.037,-2.0373,-2.0451,-2.035,-2.034,-2.035,-2.0339,-2.0322,-2.0315,-2.0277,-2.0339,-2.0347,-2.0405,-2.0284,-2.05,-2.0509,-2.0516,-2.0632,-2.0651,-2.0668,0,0,0,0,0,-2.0347,-2.0431,-2.0397,-2.0403,-2.0419,-2.0454,-2.0456,-2.0409,-2.0355,-2.0393,-2.037,-2.0316,-2.0395,-2.0347,-2.0354,-2.0415,-2.0496,-2.0506,-2.0516,-2.0624,-2.0648,-2.0668,0,0,0,0,0,0,-2.0466,-2.0427,-2.0389,-2.0467,-2.0465,-2.0435,-2.0482,-2.0435,-2.0449,-2.0438,-2.0379,-2.0377,-2.0447,-2.0436,-2.0383,-2.0512,-2.0436,-2.0448,-2.0516,-2.0538,-2.0556,-2.0557,-2.0287,0,0,0,0,0,-2.0501,-2.0531,-2.0496,-2.0569,-2.0569,-2.0526,-2.054,-2.0503,-2.0499,-2.0497,-2.0479,-2.0478,-2.0502,-2.0519,-2.054,-2.063,-2.0624,-2.0675,-2.0693,-2.0708,-2.0719,-2.0765,-2.0787,-2.0553,-2.0552,-2.0552,0,0,-2.0574,-2.0557,-2.058,-2.0592,-2.0586,-2.0619,-2.0526,-2.0566,-2.059,-2.0504,-2.056,-2.0546,-2.0541,-2.0616,-2.0649,-2.061,-2.0782,-2.072,-2.0732,-2.0735,-2.0777,-2.08,-2.0819,-2.0559,-2.0558,-2.0557,0,0,-2.0725,-2.0715,-2.0773,-2.0768,-2.0759,-2.073,-2.0744,-2.0721,-2.0709,-2.0763,-2.0699,-2.0727,-2.0771,-2.0769,-2.0774,-2.0923,-2.0873,-2.0931,-2.1026,-2.1071,-2.109,-2.1106,-2.1159,-2.1178,-2.0942,-2.0943,-2.0943,0,-2.0818,-2.0865,-2.081,-2.0853,-2.0861,-2.0782,-2.0841,-2.0839,-2.0838,-2.0845,-2.0802,-2.0853,-2.0844,-2.0918,-2.0954,-2.0961,-2.0976,-2.0933,-2.1091,-2.1107,-2.1121,-2.1171,-2.1191,-2.095,-2.0949,-2.0948,-2.0947,0,-2.0979,-2.1012,-2.1061,-2.106,-2.1072,-2.1124,-2.1078,-2.1097,-2.1059,-2.1035,-2.1091,-2.1077,-2.1093,-2.1108,-2.1072,-2.1177,-2.1153,-2.1101,-2.1024,-2.1152,-2.1197,-2.1216,-2.096,-2.0957,-2.0955,-2.0953,0,0,-2.1206,-2.1172,-2.1191,-2.1188,-2.1172,-2.1197,-2.1245,-2.1258,-2.1276,-2.1278,-2.1317,-2.1355,-2.1306,-2.1312,-2.1275,-2.1315,-2.1433,-2.1258,-2.1257,-2.1291,-2.1547,-2.1586,-2.1609,-2.14,-2.1403,-2.1406,-2.1548,0,-2.135,-2.1428,-2.138,-2.1466,-2.1496,-2.142,-2.1462,-2.1457,-2.1435,-2.1458,-2.1434,-2.1461,-2.1395,-2.1398,-2.1434,-2.1411,-2.1484,-2.14,-2.1436,-2.1438,-2.144,-2.1633,-2.1675,-2.1809,-2.1565,-2.1568,-2.157,0,-2.1529,-2.1537,-2.1625,-2.1601,-2.1612,-2.165,-2.1658,-2.1681,-2.1673,-2.1654,-2.166,-2.1613,-2.1658,-2.1582,-2.1644,-2.1588,-2.16,-2.1591,-2.1595,-2.1597,-2.1512,-2.1641,-2.1851,-2.1872,-2.1598,-2.1596,-2.1594,0,-2.1686,-2.1718,-2.1774,-2.1775,-2.1748,-2.1777,-2.1767,-2.1755,-2.1766,-2.1774,-2.178,-2.1794,-2.1802,-2.1814,-2.1771,-2.1719,-2.1839,-2.1759,-2.1825,-2.1827,-2.1855,-2.1854,-2.2071,-2.1862,-2.1862,-2.1862,-2.1861,0,-2.1852,-2.191,-2.1844,-2.1879,-2.194,-2.1884,-2.1947,-2.193,-2.192,-2.1951,-2.1887,-2.1917,-2.1859,-2.1884,-2.1852,-2.1908,-2.1912,-2.1899,-2.189,-2.1905,-2.1906,-2.1912,-2.1901,-2.1867,-2.1866,-2.1865,-2.1864,0,-2.2038,-2.1996,-2.2053,-2.2022,-2.2015,-2.2062,-2.2036,-2.2068,-2.2041,-2.2081,-2.2087,-2.2045,-2.2071,-2.2029,-2.2051,-2.2029,-2.2107,-2.2084,-2.211,-2.2103,-2.2171,-2.2165,-2.2399,-2.2427,-2.2201,-2.2203,-2.2205,0,-2.2147,-2.2189,-2.2162,-2.2177,-2.217,-2.2196,-2.2206,-2.2152,-2.2166,-2.2159,-2.2192,-2.2212,-2.2225,-2.227,-2.2242,-2.2258,-2.2235,-2.2316,-2.2237,-2.225,-2.2236,-2.2234,-2.2238,-2.2332,-2.2335,-2.2337,-2.2339,0,-2.2345,-2.2322,-2.2338,-2.2347,-2.236,-2.2366,-2.2366,-2.2383,-2.2326,-2.2344,-2.2369,-2.2379,-2.24,-2.2421,-2.2429,-2.242,-2.2371,-2.2364,-2.238,-2.2396,-2.2409,-2.2403,-2.2154,-2.2359,-2.2357,-2.2355,-2.2354,-2.2353,-2.2496,-2.2529,-2.2514,-2.2534,-2.2528,-2.253,-2.2557,-2.2533,-2.2552,-2.2563,-2.2531,-2.2563,-2.2554,-2.256,-2.2556,-2.2581,-2.2546,-2.257,-2.2575,-2.2582,-2.2593,-2.2405,-2.2583,-2.2582,-2.2582,-2.2581,-2.2581,0,-2.269,-2.2677,-2.2695,-2.2697,-2.2713,-2.2662,-2.266,-2.2677,-2.2705,-2.27,-2.2713,-2.2742,-2.2761,-2.2734,-2.2749,-2.2775,-2.2752,-2.2781,-2.2778,-2.2777,-2.2624,-2.2608,-2.2798,-2.2798,-2.2798,-2.2798,-2.2798,-2.2798,-2.2793,-2.2846,-2.2821,-2.2871,-2.2857,-2.2886,-2.2889,-2.2891,-2.2885,-2.2919,-2.2934,-2.2916,-2.2902,-2.2915,-2.2931,-2.2923,-2.2931,-2.2968,-2.2952,-2.2809,-2.2788,-2.2768,-2.2753,-2.297,-2.297,-2.3102,-2.3104,-2.3105]},{"header":{"parameterUnit":"m.s-1","parameterCategory":1,"la1":30.2991,"la2":30.254,"lo1":-89.0895,"lo2":-89.0444,"dy":0.0017,"dx":0.0017,"nx":28,"ny":28,"refTime":"2023-04-30T15:00:00:Z","depth":0,"parameterNumber":3,"parameterNumberName":"V-component_of_WINDS"},"data":[0,0,0,0,0,0,0,0,0,0,0,0,0,0,0,0,0,0,0,0,0,0,0,0,0,0,0,0,0,0,0,0,0,0,0,0,0,0,0,0,0,0,0,0,0,0,0,0,0,0,0,0,0,0,0,0,0,0,-2.8565,-2.8565,0,-2.8607,-2.8608,-2.8608,-2.8572,-2.857,-2.8568,-2.8567,-2.8608,-2.8611,-2.8613,0,0,0,0,0,0,0,0,0,0,0,0,0,-2.8447,-2.845,-2.8564,-2.8565,-2.8566,-2.8607,-2.8608,-2.8608,-2.8572,-2.857,-2.8568,-2.8566,-2.8607,-2.861,-2.8613,0,0,0,0,0,0,0,0,0,0,0,0,0,-2.8495,-2.8451,-2.8564,-2.8552,-2.8552,-2.8607,-2.8608,-2.8609,-2.8572,-2.857,-2.8568,-2.8565,-2.8606,-2.861,-2.8614,-2.8682,0,0,-2.8625,-2.8627,0,0,0,0,0,0,0,0,-2.8492,-2.8499,-2.8554,-2.8553,-2.8553,-2.8582,-2.8582,-2.8633,-2.8573,-2.8564,-2.8567,-2.8564,-2.8601,-2.8605,-2.8618,-2.8684,-2.8686,-2.8625,-2.8628,-2.8629,-2.863,0,0,0,0,0,0,0,-2.8489,-2.8497,-2.8581,-2.8554,-2.8554,-2.8544,-2.8548,-2.8591,-2.8595,-2.8565,-2.8562,-2.8568,-2.86,-2.8614,-2.8619,-2.8687,-2.8625,-2.8629,-2.8631,-2.8632,-2.8809,-2.8811,0,0,0,0,0,0,-2.8488,-2.8495,-2.858,-2.8583,-2.8516,-2.8548,-2.8552,-2.8575,-2.8594,-2.8595,-2.857,-2.8566,-2.8609,-2.8614,-2.862,-2.87,-2.8629,-2.8633,-2.8635,-2.8807,-2.881,-2.8812,0,0,0,0,0,0,-2.8485,-2.8495,-2.8578,-2.8538,-2.8548,-2.8552,-2.8577,-2.8577,-2.8591,-2.8598,-2.8598,-2.8584,-2.8608,-2.8615,-2.8667,-2.8701,-2.8635,-2.8638,-2.8804,-2.8808,-2.8811,-2.8862,0,0,0,0,0,0,-2.8482,-2.8495,-2.8522,-2.8539,-2.855,-2.8626,-2.858,-2.8579,-2.8598,-2.8593,-2.8611,-2.8612,-2.8606,-2.8661,-2.8671,-2.8705,-2.8641,-2.8801,-2.8805,-2.881,-2.8857,-2.8867,-2.8875,0,0,0,0,0,-2.8478,-2.8534,-2.8523,-2.8534,-2.8584,-2.8628,-2.8634,-2.8627,-2.8601,-2.8627,-2.8632,-2.8611,-2.8696,-2.8667,-2.8677,-2.8713,-2.8798,-2.8804,-2.8809,-2.8853,-2.8865,-2.8875,0,0,0,0,0,0,-2.852,-2.8536,-2.8524,-2.8588,-2.8607,-2.8621,-2.8655,-2.864,-2.8666,-2.866,-2.865,-2.8654,-2.8709,-2.8716,-2.8684,-2.878,-2.8743,-2.8751,-2.8773,-2.8784,-2.8793,-2.8789,-2.8644,0,0,0,0,0,-2.8537,-2.8572,-2.8584,-2.8639,-2.8649,-2.8651,-2.8669,-2.8662,-2.8681,-2.8688,-2.8696,-2.8714,-2.8745,-2.8765,-2.8793,-2.8858,-2.8861,-2.8888,-2.8897,-2.8904,-2.8911,-2.8944,-2.8955,-2.883,-2.883,-2.883,0,0,-2.8572,-2.8585,-2.8608,-2.8648,-2.8662,-2.8697,-2.8657,-2.8697,-2.8722,-2.8694,-2.8743,-2.875,-2.8769,-2.8828,-2.8854,-2.8835,-2.8946,-2.8911,-2.8917,-2.8919,-2.895,-2.8962,-2.8973,-2.8834,-2.8833,-2.8833,0,0,-2.8654,-2.8668,-2.8715,-2.8729,-2.8751,-2.8751,-2.8762,-2.8779,-2.8782,-2.8832,-2.8811,-2.8841,-2.8894,-2.8908,-2.8922,-2.9008,-2.899,-2.9018,-2.9064,-2.9096,-2.9106,-2.9115,-2.9144,-2.9154,-2.9024,-2.9024,-2.9024,0,-2.8694,-2.8747,-2.874,-2.8781,-2.8798,-2.8775,-2.8821,-2.8835,-2.8865,-2.8877,-2.8856,-2.8921,-2.8933,-2.8993,-2.9014,-2.9027,-2.9038,-2.9015,-2.9106,-2.9114,-2.9122,-2.9149,-2.9161,-2.9027,-2.9027,-2.9027,-2.9026,0,-2.8795,-2.8832,-2.8867,-2.8897,-2.8918,-2.8961,-2.8959,-2.8982,-2.8973,-2.8975,-2.9025,-2.9038,-2.9068,-2.9082,-2.9074,-2.9141,-2.9129,-2.9107,-2.907,-2.9137,-2.9163,-2.9173,-2.9032,-2.9031,-2.903,-2.9029,0,0,-2.8904,-2.8929,-2.8942,-2.8954,-2.8975,-2.9003,-2.9045,-2.9075,-2.9093,-2.9114,-2.9148,-2.9193,-2.9173,-2.9189,-2.9182,-2.921,-2.9275,-2.9185,-2.9185,-2.92,-2.9348,-2.9363,-2.9375,-2.9264,-2.9266,-2.9268,-2.9346,0,-2.8985,-2.9058,-2.9052,-2.9121,-2.9154,-2.9132,-2.9168,-2.9184,-2.9187,-2.9215,-2.9218,-2.9249,-2.9222,-2.9231,-2.9258,-2.9262,-2.9305,-2.9256,-2.9293,-2.9295,-2.9288,-2.9389,-2.9405,-2.9478,-2.9356,-2.9358,-2.9359,0,-2.9089,-2.9114,-2.9186,-2.9201,-2.9215,-2.9247,-2.9274,-2.9301,-2.9318,-2.9318,-2.9336,-2.9324,-2.9364,-2.9327,-2.9381,-2.9348,-2.9363,-2.9367,-2.937,-2.9372,-2.933,-2.9392,-2.9502,-2.9512,-2.9375,-2.9374,-2.9373,0,-2.9159,-2.9211,-2.926,-2.9271,-2.9291,-2.9314,-2.9323,-2.9339,-2.9356,-2.9379,-2.939,-2.9418,-2.9432,-2.9452,-2.9447,-2.9421,-2.9502,-2.9465,-2.9502,-2.9502,-2.9518,-2.9517,-2.9631,-2.9531,-2.9531,-2.9531,-2.953,0,-2.9249,-2.9293,-2.9291,-2.9321,-2.937,-2.9363,-2.941,-2.9417,-2.943,-2.946,-2.9443,-2.9471,-2.9464,-2.9491,-2.9487,-2.9532,-2.9539,-2.9539,-2.9537,-2.9539,-2.9539,-2.9548,-2.9542,-2.9534,-2.9533,-2.9532,-2.9532,0,-2.9335,-2.9336,-2.9387,-2.9402,-2.9407,-2.9441,-2.9453,-2.9481,-2.9482,-2.952,-2.9528,-2.9531,-2.9562,-2.9559,-2.9594,-2.9592,-2.9646,-2.9639,-2.964,-2.9638,-2.9674,-2.967,-2.9796,-2.9811,-2.9703,-2.9704,-2.9705,0,-2.9392,-2.9425,-2.9443,-2.9462,-2.9473,-2.9504,-2.9522,-2.9516,-2.9536,-2.9558,-2.9582,-2.9612,-2.9636,-2.9686,-2.969,-2.9717,-2.9709,-2.9751,-2.9713,-2.9714,-2.9707,-2.9705,-2.9707,-2.9758,-2.9759,-2.976,-2.9761,0,-2.9491,-2.949,-2.9517,-2.9545,-2.9567,-2.9588,-2.9608,-2.9624,-2.9619,-2.9642,-2.9674,-2.9692,-2.9728,-2.9757,-2.9782,-2.979,-2.9774,-2.9774,-2.9783,-2.9785,-2.9784,-2.9783,-2.9659,-2.977,-2.9769,-2.9769,-2.9768,-2.9768,-2.9563,-2.9591,-2.9608,-2.9639,-2.9653,-2.9671,-2.9697,-2.9702,-2.9729,-2.9758,-2.9753,-2.9788,-2.9804,-2.9836,-2.9846,-2.9873,-2.9857,-2.9872,-2.9875,-2.9878,-2.9881,-2.9781,-2.9877,-2.9877,-2.9877,-2.9877,-2.9876,0,-2.966,-2.967,-2.9699,-2.9726,-2.975,-2.9735,-2.9755,-2.9775,-2.9807,-2.9823,-2.9847,-2.9883,-2.9911,-2.9917,-2.9943,-2.9963,-2.9957,-2.997,-2.9968,-2.9969,-2.9895,-2.9883,-2.9975,-2.9975,-2.9975,-2.9975,-2.9975,-2.9975,-2.9714,-2.976,-2.9761,-2.9813,-2.9822,-2.9858,-2.987,-2.9886,-2.9899,-2.994,-2.9963,-2.9968,-2.9979,-3.0006,-3.0031,-3.0032,-3.0041,-3.0057,-3.0055,-2.9985,-2.9975,-2.9966,-2.9954,-3.006,-3.006,-3.0128,-3.0128,-3.0129]}]]